ARIANE 44L DEB, 33590

Orbit data source: Space-Track

ARIANE 44L DEB, 33590 is space debris in HEO originally from a launch on Tue, 15 Jan 1991 UTC launched from the French Guiana (FRGUI). Debris objects in space refer to the collection of defunct objects orbiting the Earth. Examples of debris include non-operational satellites, rocket bodies, and fragments generated from explosions, collisions, or faulty payload assembly.

Loading next visibility...
Identifier
33590, 1991-003T
Orbit
HEO
Country
Flag of FRFR
Related business
Manufacturer
Unknown
Mission
Spacecraft
Bus & Motor
Unknown
Mass
Unknown
Launch date (UTC)
1991-01-15 (35 years ago)
Launch vehicle
Unknown
Launch site
French Guiana (FRGUI)
Object type
Payload
Rocket body
Debris
Shape & HBR
Unknown shape, 1.1 m
Radar Cross Section
Medium (>0.1 m² and <1 m²)

Expand to show TLE details & history
Last TLE update: 2 days ago

TLE from 2 days ago
0 ARIANE 44L DEB
1 33590U 91003T   26171.17106362  .00000255  00000-0  33028-2 0  9996
2 33590   7.3655 107.6459 6819582 325.8073 289.7954  2.68419086130728
Epoch: 2026-06-20T04:06Z
TLE epoch observation values (Epoch: 2026-06-20T04:06:19.896Z)
Latitude
-0.16126°
Longitude
-41.19033°
Altitude
19,990.193 km
Speed
3.465 km/s
True Right ascension
19h 15m 07s
True Declination
0° 09' 40"
Sunlit
Object was in daylight at epoch
Visualization orbit readout
Latitude
Unknown
Longitude
Unknown
Altitude
Unknown
Speed
Unknown
Apparent Right ascension
Unknown
Apparent Declination
Unknown
Sunlit
N/A
Visualization observer readout
Local Sidereal Time
23:09:16
Azimuth
Unknown
Elevation
Unknown
Doppler factor
Unknown
Orbital elements
Apogee altitude
30,415.671 km
Perigee altitude
579.211 km
Semi-major axis
21,875.578 km
Eccentricity
0.68196
Inclination
7.3655°
RAAN
107.6459°
Arg. of periapsis
325.8073°
True anomaly
215.38425°
Mean anomaly
289.7954°
Eccentric anomaly
252.52532°
Mean motion
0.67082 °/min
Orbital period
536.66 mins
BSTAR
0.0033028
Loading maneuver chart data...
Computing Atmospheric mass density...
Loading historical data...
Loading historical data...
Loading historical data...
Loading historical data...
Loading historical data...
Loading historical data...
Loading historical data...

Documentation

Showing up to 5 results
|